758  
ASUS42 KKEY 182010  
RWRKEY  
 
FLORIDA REGIONAL WEATHER ROUNDUP FOR THE FLORIDA KEYS  
NATIONAL WEATHER SERVICE KEY WEST FLORIDA  
400 PM EDT SAT APR 18 2015  
   
..SOUTH FLORIDA AND THE KEYS
 
 
 
CITY SKY/WX TMP DP RH WIND PRES REMARKS
 
FORT MYERS MOSUNNY 87 69 54 SW12 29.92F HX 91  
SW REGIONAL AP MOSUNNY 86 69 56 SW15 29.93F HX 90  
NAPLES MOSUNNY 85 71 63 SW12 29.94F HX 90  
MIAMI MOSUNNY 89 68 49 SE14G24 29.93F HX 93  
WEST KENDALL CLOUDY 90 69 50 SE12G20 29.92F HX 94  
HOMESTEAD SUNNY 89 68 50 SE8 29.93F HX 93  
MARATHON SUNNY 86 75 69 VRB5 29.95F HX 95  
BOCA CHICA NAS MOSUNNY 85 71 63 VRB5 29.95F HX 90  
KEY WEST INTL MOSUNNY 82 73 74 S6 29.95F  
   
..INTERNATIONAL WEATHER
 
 
 
CITY SKY/WX TMP DP RH WIND PRES REMARKS
 
NASSAU BAHAMAS NOT AVBL  
CANCUN MEXICO PTSUNNY 84 73 70 SE13 29.89F HX 91  
COZUMEL MEXICO MOSUNNY 84 73 70 S14 29.89F HX 91  
 
ADJACENT COASTAL WATERS...  
 
STATION/POSITION TIME SKY/WX TEMP WIND PRES WAVE
 
AIR SEA DIR/SP/G HT/PER  
(UTC) (F) (DEG/KT/KT) (MB) (FT/S)  
PULASKI SHOAL LI 1900 80 140/ 5/ 6 1014.6F  
SAND KEY 1950 80 120/ 2/ 3 1014.4F  
SOMBRERO KEY 2000 85 140/ 2/ 3 1015.0F  
LONG KEY 2000 83 85 340/ 3/ 3 1015.0F  
MOLASSES REEF 2000 80 80 170/ 6/ 7 1014.3F  
FOWEY ROCKS NOT AVBL  
 

 
 
CLICK HERE TO GO TO PREVIOUS BULLETINS.

The Nexlab FL Page Main Text Page